This is the latest recevied weather packets stored in our database for station/object KB3VSP. If no packets are shown the sender has not sent any weather packets the latest 10 day(s).
| Time | Temp. | Humidity | Pressure | Rain* | Wind** | Luminosity | Snow |
|---|---|---|---|---|---|---|---|
| 1777594156 | 7.78° C | 79% | 1014.6 hPa | 0 mm | - | 1 W/m² | - |
| 1777593852 | 7.78° C | 78% | 1014.6 hPa | 0 mm | - | 1 W/m² | - |
| 1777593549 | 7.78° C | 78% | 1014.4 hPa | 0 mm | - | 5 W/m² | - |
| 1777593243 | 7.78° C | 77% | 1014.6 hPa | 0 mm | - | 7 W/m² | - |
| 1777592943 | 7.78° C | 77% | 1014.4 hPa | 0 mm | - | 9 W/m² | - |
| 1777592637 | 7.78° C | 76% | 1014.2 hPa | 0 mm | - | 10 W/m² | - |
| 1777592334 | 8.33° C | 76% | 1014.4 hPa | 0 mm | - | 10 W/m² | - |
| 1777592030 | 8.33° C | 74% | 1014.3 hPa | 0 mm | - | 10 W/m² | - |
| 1777591727 | 8.89° C | 74% | 1014.5 hPa | 0 mm | - | 11 W/m² | - |
| 1777591423 | 8.89° C | 72% | 1014.4 hPa | 0 mm | - | 14 W/m² | - |
| 1777591118 | 9.44° C | 71% | 1014.5 hPa | 0 mm | - | 24 W/m² | - |
| 1777590814 | 8.89° C | 70% | 1014.2 hPa | 0 mm | - | 43 W/m² | - |
| 1777590510 | 8.89° C | 71% | 1014.6 hPa | 0 mm | - | 51 W/m² | - |
| 1777590207 | 8.89° C | 71% | 1014.5 hPa | 0 mm | - | 28 W/m² | - |
| 1777589904 | 8.89° C | 70% | 1014.6 hPa | 0 mm | - | 45 W/m² | - |
| 1777589600 | 8.89° C | 72% | 1014.5 hPa | 0 mm | - | 49 W/m² | - |
| 1777589297 | 8.33° C | 72% | 1014.4 hPa | 0 mm | - | 46 W/m² | - |
| 1777588995 | 8.33° C | 72% | 1014.4 hPa | 0 mm | - | 53 W/m² | - |
| 1777588690 | 8.33° C | 73% | 1014.5 hPa | 0 mm | - | 55 W/m² | - |
| 1777588386 | 8.33° C | 73% | 1014.3 hPa | 0 mm | - | 52 W/m² | - |
| 1777588082 | 8.33° C | 73% | 1014.5 hPa | 0 mm | - | 46 W/m² | - |
| 1777587772 | 8.33° C | 73% | 1014.6 hPa | 0 mm | - | 31 W/m² | - |
| 1777587471 | 8.89° C | 72% | 1014.6 hPa | 0 mm | - | 18 W/m² | - |
| 1777587168 | 8.89° C | 72% | 1014.4 hPa | 0 mm | - | 17 W/m² | - |
| 1777586864 | 8.89° C | 71% | 1014.5 hPa | 0 mm | - | 14 W/m² | - |
* Rain latest hour (hover to see other rain measurements)
** Current wind speed in m/s (hover to see current wind gust speed)